| time (UTC) | temp F | wind direction | speed knots | gust knots | rain 1hr in | rain 24hr in | rain mn in | humidity % | barometer mb |
| 20260507121508 | 43 | 186 | 0.0 | 2.6 | 0.00 | 0.00 | 0.00 | 92 | 1021.2 |
| 20260507120116 | 43 | 198 | 0.9 | 1.7 | 0.00 | 0.00 | 0.00 | 91 | 1021.2 |
| 20260507114605 | 43 | 224 | 0.0 | 0.0 | 0.00 | 0.00 | 0.00 | 90 | 1021.4 |
| 20260507113004 | 44 | 224 | 0.0 | 0.0 | 0.00 | 0.00 | 0.00 | 89 | 1021.4 |
| 20260507111509 | 45 | 224 | 0.0 | 0.0 | 0.00 | 0.00 | 0.00 | 89 | 1021.2 |
| 20260507110121 | 46 | 224 | 0.0 | 2.6 | 0.00 | 0.00 | 0.00 | 89 | 1021.3 |
| 20260507104505 | 46 | 204 | 0.0 | 2.6 | 0.00 | 0.00 | 0.00 | 90 | 1021.3 |
| 20260507103007 | 46 | 193 | 0.0 | 1.7 | 0.00 | 0.00 | 0.00 | 90 | 1021.5 |
| 20260507101516 | 47 | 200 | 0.0 | 1.7 | 0.00 | 0.00 | 0.00 | 89 | 1021.4 |
| 20260507100119 | 48 | 200 | 0.0 | 0.9 | 0.00 | 0.00 | 0.00 | 88 | 1021.4 |
| 20260507094604 | 48 | 181 | 0.0 | 1.7 | 0.00 | 0.00 | 0.00 | 88 | 1021.5 |
| 20260507093004 | 49 | 224 | 1.7 | 3.5 | 0.00 | 0.00 | 0.00 | 88 | 1021.5 |
| 20260507091508 | 49 | 186 | 0.0 | 2.6 | 0.00 | 0.00 | 0.00 | 88 | 1021.6 |
| 20260507090114 | 49 | 193 | 1.7 | 4.3 | 0.00 | 0.00 | 0.00 | 88 | 1021.7 |
| 20260507084601 | 49 | 190 | 0.9 | 2.6 | 0.00 | 0.00 | 0.00 | 88 | 1021.6 |
| 20260507083102 | 50 | 183 | 0.9 | 5.2 | 0.00 | 0.00 | 0.00 | 87 | 1021.5 |
| 20260507081501 | 50 | 203 | 2.6 | 5.2 | 0.00 | 0.00 | 0.00 | 86 | 1021.5 |
| 20260507080119 | 50 | 195 | 0.0 | 0.9 | 0.00 | 0.00 | 0.00 | 87 | 1021.5 |
| 20260507074604 | 50 | 227 | 0.0 | 4.3 | 0.00 | 0.00 | 0.00 | 88 | 1021.2 |
| 20260507073003 | 50 | 186 | 0.9 | 3.5 | 0.00 | 0.00 | 0.00 | 89 | 1020.9 |
| 20260507071506 | 50 | 223 | 2.6 | 5.2 | 0.00 | 0.00 | 0.00 | 88 | 1021.0 |
| 20260507070114 | 51 | 203 | 0.9 | 3.5 | 0.00 | 0.00 | 0.00 | 87 | 1021.1 |
| 20260507064618 | 51 | 216 | 0.0 | 2.6 | 0.00 | 0.00 | 0.00 | 87 | 1021.1 |
| 20260507063101 | 51 | 191 | 0.0 | 1.7 | 0.00 | 0.00 | 0.00 | 88 | 1021.1 |
| 20260507061503 | 51 | 188 | 0.9 | 5.2 | 0.00 | 0.00 | 0.00 | 89 | 1020.9 |
| 20260507060108 | 51 | 233 | 0.9 | 4.3 | 0.00 | 0.00 | 0.00 | 90 | 1021.0 |
| 20260507054602 | 51 | 230 | 0.0 | 1.7 | 0.00 | 0.00 | 0.00 | 90 | 1021.1 |
| 20260507053055 | 51 | 230 | 0.0 | 1.7 | 0.00 | 0.00 | 0.00 | 90 | 1021.1 |
| 20260507051558 | 51 | 197 | 0.9 | 3.5 | 0.00 | 0.00 | 0.00 | 89 | 1021.2 |
| 20260507044548 | 51 | 205 | 0.9 | 7.0 | 0.00 | 0.00 | 0.00 | 88 | 1021.3 |
| 20260507043059 | 52 | 207 | 2.6 | 8.7 | 0.00 | 0.00 | 0.00 | 88 | 1021.2 |
| 20260507041605 | 52 | 174 | 2.6 | 11.3 | 0.00 | 0.00 | 0.00 | 88 | 1021.1 |
| 20260507040100 | 52 | 200 | 2.6 | 7.0 | 0.00 | 0.00 | 0.00 | 88 | 1021.0 |
| 20260507034548 | 53 | 215 | 3.5 | 8.7 | 0.00 | 0.00 | 0.00 | 87 | 1021.0 |
| 20260507033050 | 53 | 227 | 4.3 | 8.7 | 0.00 | 0.00 | 0.00 | 86 | 1020.9 |
| 20260507031552 | 53 | 157 | 2.6 | 7.8 | 0.00 | 0.00 | 0.00 | 86 | 1020.7 |
| 20260507024540 | 54 | 216 | 1.7 | 5.2 | 0.00 | 0.00 | 0.00 | 86 | 1020.7 |
| 20260507023043 | 54 | 181 | 1.7 | 7.8 | 0.00 | 0.00 | 0.00 | 86 | 1020.6 |
| 20260507021552 | 54 | 223 | 1.7 | 5.2 | 0.00 | 0.00 | 0.00 | 87 | 1020.6 |
| 20260507020050 | 53 | 188 | 1.7 | 5.2 | 0.00 | 0.00 | 0.00 | 87 | 1020.7 |
| 20260507014555 | 54 | 214 | 1.7 | 6.1 | 0.00 | 0.00 | 0.00 | 86 | 1020.7 |
| 20260507013108 | 54 | 200 | 1.7 | 6.1 | 0.00 | 0.00 | 0.00 | 86 | 1020.6 |
| 20260507011550 | 54 | 236 | 1.7 | 8.7 | 0.00 | 0.00 | 0.00 | 86 | 1020.5 |
| 20260507010054 | 54 | 225 | 3.5 | 7.8 | 0.00 | 0.00 | 0.00 | 85 | 1020.5 |
| 20260507004539 | 54 | 235 | 2.6 | 6.1 | 0.00 | 0.00 | 0.00 | 85 | 1020.6 |
| 20260507003039 | 54 | 193 | 1.7 | 4.3 | 0.00 | 0.00 | 0.00 | 85 | 1020.5 |
| 20260507001556 | 54 | 247 | 2.6 | 8.7 | 0.00 | 0.00 | 0.00 | 84 | 1020.5 |
| 20260507000029 | 55 | 240 | 1.7 | 6.1 | 0.00 | 0.00 | 0.00 | 85 | 1020.5 |
| 20260506234530 | 55 | 238 | 1.7 | 8.7 | 0.00 | 0.00 | 0.00 | 85 | 1020.5 |
| 20260506233030 | 55 | 201 | 4.3 | 7.8 | 0.00 | 0.00 | 0.00 | 83 | 1020.5 |
| 20260506231534 | 55 | 196 | 4.3 | 8.7 | 0.00 | 0.00 | 0.00 | 84 | 1020.5 |
| 20260506230027 | 55 | 214 | 2.6 | 10.4 | 0.00 | 0.00 | 0.00 | 86 | 1020.6 |
| 20260506224531 | 55 | 250 | 4.3 | 9.6 | 0.00 | 0.00 | 0.00 | 85 | 1020.7 |
| 20260506223035 | 55 | 234 | 2.6 | 8.7 | 0.00 | 0.00 | 0.00 | 85 | 1020.7 |
| 20260506221538 | 55 | 223 | 3.5 | 7.8 | 0.00 | 0.00 | 0.00 | 83 | 1020.7 |
| 20260506220023 | 55 | 206 | 2.6 | 9.6 | 0.00 | 0.00 | 0.00 | 83 | 1020.7 |
| 20260506214527 | 55 | 243 | 3.5 | 7.8 | 0.00 | 0.00 | 0.00 | 82 | 1020.7 |
| 20260506213035 | 56 | 219 | 4.3 | 8.7 | 0.00 | 0.00 | 0.00 | 81 | 1020.7 |
| 20260506211533 | 56 | 188 | 3.5 | 7.8 | 0.00 | 0.00 | 0.00 | 81 | 1020.8 |
| 20260506210039 | 55 | 233 | 2.6 | 8.7 | 0.00 | 0.00 | 0.00 | 82 | 1020.7 |
| 20260506204522 | 56 | 239 | 3.5 | 8.7 | 0.00 | 0.00 | 0.00 | 81 | 1020.7 |
| 20260506203025 | 55 | 243 | 2.6 | 12.2 | 0.00 | 0.00 | 0.00 | 81 | 1020.7 |
| 20260506201531 | 55 | 200 | 4.3 | 7.8 | 0.00 | 0.00 | 0.00 | 81 | 1020.6 |
| 20260506200039 | 55 | 236 | 1.7 | 7.0 | 0.00 | 0.00 | 0.00 | 84 | 1020.7 |
| 20260506194518 | 54 | 211 | 2.6 | 7.0 | 0.00 | 0.00 | 0.00 | 84 | 1020.7 |
| 20260506193021 | 53 | 179 | 2.6 | 9.6 | 0.00 | 0.00 | 0.00 | 86 | 1020.6 |
| 20260506191525 | 53 | 198 | 4.3 | 7.0 | 0.00 | 0.00 | 0.00 | 86 | 1020.7 |
| 20260506190012 | 52 | 179 | 3.5 | 8.7 | 0.00 | 0.00 | 0.00 | 85 | 1020.6 |
| 20260506184515 | 52 | 190 | 2.6 | 7.0 | 0.00 | 0.00 | 0.00 | 85 | 1020.4 |
| 20260506183017 | 53 | 245 | 2.6 | 8.7 | 0.00 | 0.00 | 0.00 | 85 | 1020.3 |
| 20260506181529 | 53 | 225 | 3.5 | 7.8 | 0.00 | 0.00 | 0.00 | 85 | 1020.3 |
| 20260506180008 | 52 | 227 | 2.6 | 8.7 | 0.00 | 0.00 | 0.00 | 86 | 1020.2 |
| 20260506174512 | 52 | 202 | 4.3 | 10.4 | 0.00 | 0.00 | 0.00 | 86 | 1020.3 |
| 20260506173015 | 52 | 200 | 1.7 | 7.8 | 0.00 | 0.00 | 0.00 | 86 | 1020.1 |
| 20260506171543 | 52 | 246 | 2.6 | 6.1 | 0.00 | 0.00 | 0.00 | 86 | 1020.1 |
| 20260506170012 | 52 | 244 | 1.7 | 7.0 | 0.00 | 0.00 | 0.00 | 86 | 1019.9 |
| 20260506164516 | 52 | 204 | 2.6 | 5.2 | 0.00 | 0.00 | 0.00 | 85 | 1019.8 |
| 20260506163022 | 52 | 209 | 1.7 | 7.0 | 0.00 | 0.00 | 0.00 | 86 | 1019.8 |
| 20260506161529 | 52 | 225 | 1.7 | 5.2 | 0.00 | 0.00 | 0.00 | 87 | 1019.8 |
| 20260506160013 | 51 | 219 | 1.7 | 4.3 | 0.00 | 0.00 | 0.00 | 88 | 1019.8 |
| 20260506154515 | 51 | 216 | 0.9 | 6.1 | 0.00 | 0.00 | 0.00 | 89 | 1019.9 |
| 20260506153018 | 51 | 202 | 2.6 | 8.7 | 0.00 | 0.00 | 0.00 | 89 | 1019.9 |
| 20260506151524 | 51 | 212 | 3.5 | 7.8 | 0.00 | 0.00 | 0.00 | 89 | 1019.8 |
| 20260506150010 | 51 | 230 | 2.6 | 7.0 | 0.00 | 0.00 | 0.00 | 89 | 1019.4 |
| 20260506144513 | 51 | 228 | 0.0 | 1.7 | 0.00 | 0.00 | 0.00 | 90 | 1019.3 |
| 20260506143024 | 50 | 184 | 1.7 | 3.5 | 0.00 | 0.00 | 0.00 | 89 | 1019.1 |
| 20260506141529 | 50 | 238 | 0.0 | 5.2 | 0.00 | 0.00 | 0.00 | 89 | 1019.2 |
| 20260506140014 | 50 | 200 | 0.0 | 3.5 | 0.00 | 0.00 | 0.00 | 90 | 1019.1 |
| 20260506134534 | 50 | 199 | 0.0 | 3.5 | 0.00 | 0.00 | 0.00 | 90 | 1019.0 |
| 20260506133021 | 50 | 195 | 0.0 | 1.7 | 0.00 | 0.00 | 0.00 | 90 | 1018.9 |
| 20260506131526 | 50 | 195 | 0.0 | 3.5 | 0.00 | 0.00 | 0.00 | 90 | 1018.8 |
| 20260506130007 | 50 | 198 | 0.9 | 3.5 | 0.00 | 0.00 | 0.00 | 90 | 1018.6 |
| 20260506124513 | 50 | 201 | 0.0 | 3.5 | 0.00 | 0.00 | 0.00 | 90 | 1018.6 |
| 20260506123011 | 50 | 217 | 0.9 | 5.2 | 0.00 | 0.00 | 0.00 | 90 | 1018.6 |